Preview of NWS' New Version of Forecast
This preview is not operational and should not be used for support decisions.

Regional Weather Roundup (RWR)

Issued by National Weather Service (NWS)

                            
000
ASUS43 KDMX 191406
RWRIA 

WEATHER ROUNDUP FOR IOWA
NATIONAL WEATHER SERVICE DES MOINES IA
900 AM CDT FRI APR 19 2019

NOTE: "FAIR" INDICATES FEW OR NO CLOUDS BELOW 12,000 FEET WITH NO
SIGNIFICANT WEATHER AND/OR OBSTRUCTIONS TO VISIBILITY.

* - THESE STATIONS ARE NOT NWS STATIONS...THUS NOT UNDER NWS
QUALITY CONTROL.  THEY ALSO DO NOT REPORT WEATHER SUCH 
AS PRECIPITATION OR FOG.  

IAZ001>003-012>014-020>022-031>034-043>046-191500-
   NORTHWEST IOWA
  
CITY           SKY/WX    TMP DP  RH WIND       PRES   REMARKS
CARROLL *      SUNNY     48  43  81 NW9       30.08R                  
CHEROKEE *     MOSUNNY   40  38  90 CALM      30.10S                  
DENISON *      SUNNY     43  39  87 CALM      30.12R                  
LE MARS *      SUNNY     41  39  93 CALM      30.10F                  
SHELDON *      SUNNY     41  41 100 CALM      30.08S                  
SIOUX CITY     SUNNY     43  36  76 NW6       30.12R                  
SPENCER        SUNNY     47  40  76 NW6       30.08S                  
STORM LAKE *   SUNNY     46  41  81 N7        30.06R                  
$$
 
IAZ055>058-069>071-079>083-090>094-191500-
   SOUTHWEST IOWA
  
CITY           SKY/WX    TMP DP  RH WIND       PRES   REMARKS
ATLANTIC *     SUNNY     46  43  87 N12       30.08S                  
AUDUBON *      SUNNY     46  39  76 CALM      30.09R                  
CLARINDA *     SUNNY     46  39  76 N12       30.10R                  
COUNCIL BLFS * SUNNY     46  43  87 N6        30.11R                  
CRESTON *      SUNNY     46  43  87 N14       30.05R                  
HARLAN  *      SUNNY     45  41  87 N6        30.10R                  
LAMONI         SUNNY     47  37  68 N18G26    30.02S                  
RED OAK *      SUNNY     48  39  71 MISG      30.10R                  
SHENANDOAH *   SUNNY     48  39  71 N8        30.09S                  
$$
 
IAZ047>049-059>061-072>074-084-191500-
   CENTRAL IOWA
  
CITY           SKY/WX    TMP DP  RH WIND       PRES   REMARKS
AMES           SUNNY     47  38  71 N10       30.05S                  
ANKENY *       SUNNY     46  39  76 N12       30.06S                  
BOONE *        SUNNY     46  43  87 N14       30.05R                  
CHARITON *     SUNNY     48  37  66 N18G24    30.01F                  
DES MOINES     SUNNY     47  37  68 N10G22    30.05R                  
GRINNELL*      SUNNY     46  36  66 N16G23    30.03S                  
KNOXVILLE *    SUNNY     46  41  81 N13G20    30.02S                  
MARSHALLTOWN   SUNNY     48  38  68 N14       30.03R                  
NEWTON *       SUNNY     48  39  71 N12G20    30.03R                  
PELLA *        SUNNY     49  35  59 N14G21    30.03S                  
PERRY *        FAIR      46  41  81 N10       30.07R                  
$$
 
IAZ004>006-015-016-023>025-035-036-191500-
   NORTH CENTRAL IOWA
  
CITY           SKY/WX    TMP DP  RH WIND       PRES   REMARKS
ALGONA *       SUNNY     45  41  87 N7        30.05S                  
CLARION *      SUNNY     45  41  87 N10       30.06S                  
ESTHERVILLE    SUNNY     44  38  79 NW6       30.06S                  
FORT DODGE *   SUNNY     45  38  76 N7        30.07R                  
MASON CITY     SUNNY     45  39  79 N9        30.06S                  
FOREST CITY *  FAIR      46  37  71 N8        30.05S                  
IOWA FALLS *   FAIR      46  40  80 N8        30.06R                  
$$

IAZ007>011-017>019-026>030-037>042-050>054-066-191500-
   NORTHEAST IOWA
  
CITY           SKY/WX    TMP DP  RH WIND       PRES   REMARKS
CEDAR RAPIDS   FAIR      46  35  65 N17G25    29.98R                  
CHARLES CITY * FAIR      45  39  81 N9        30.04S                  
CLINTON *      FAIR      47  33  58 N21       29.93R                  
DECORAH *      FAIR      45  34  65 N9G16     30.00S                  
DUBUQUE        FAIR      45  32  60 N16G25    29.95R                  
MONTICELLO *   FAIR      46  36  66 N12G18    29.96F                  
OELWEIN *      FAIR      45  39  81 N13       30.01S                  
WATERLOO       FAIR      48  36  63 N14       30.02S                  
$$
 
IAZ064-065-067-068-078-191500-
   EAST CENTRAL IOWA
  
CITY           SKY/WX    TMP DP  RH WIND       PRES   REMARKS
DAVENPORT      FAIR      47  34  60 N24G31    29.94R                  
IOWA CITY      FAIR      48  34  58 N14G22    29.99R                  
MT. PLEASANT * SUNNY     46  37  71 N20G28    29.95S                  
MUSCATINE *    FAIR      48  34  57 N22       29.96R                  
QUAD CITIES    FAIR      48  35  60 N18G29    29.91S                  
$$
 
IAZ062-063-075>077-085>089-095>099-191500-
   SOUTHEAST IOWA
  
CITY           SKY/WX    TMP DP  RH WIND       PRES   REMARKS
BURLINGTON     CLOUDY    46  35  65 N18G29    29.93R                  
FAIRFIELD *    SUNNY     46  36  66 N20       29.97S                  
FORT MADISON * MOSUNNY   46  37  71 N16G26    29.94R                  
KEOKUK *       MOSUNNY   46  37  71 N16G25    29.93R                  
OSKALOOSA *    FAIR      47  35  62 N21G26    30.01R                  
CENTERVILLE *  FAIR      46  37  71 N16       30.01R                  
OTTUMWA        SUNNY     47  35  63 N17       30.00R                  
WASHINGTON *   SUNNY     46  39  76 N17G24    29.98S                  
$$

ABBREVIATIONS USED IN REMARKS
   TC - TEMPERATURES IN CELSIUS
  WCI - WIND CHILL INDEX
   HX - HEAT INDEX
  VSB - VISIBILITY  
$$